Weather Roundup
Issued by NWS

Home | Current Version | Previous Version | Text Only | Print | Product List | Glossary On
Versions: 1 2 3 4 5 6 7 8 9 10 11 12 13 14 15 16 17 18 19 20 21 22 23 24 25 26 27 28 29 30 31 32 33 34 35 36 37 38 39 40 41 42 43 44 45 46 47 48 49 50
000
NZUS93 KARX 181410
HRRWXR

CURRENT HOURLY OBSERVATIONS ACROSS
MUCH OF THE UPPER MISSISSIPPI VALLEY
NATIONAL WEATHER SERVICE LA CROSSE WI
900 AM CDT WED OCT 18 2017


...SOUTHEAST MINNESOTA...


CITY           SKY/WX    TMP DP  RH WIND       PRES   REMARKS
ROCHESTER      SUNNY     52  46  80 S20       29.90S
ROCHESTER/MAYO FAIR      52  46  77 S13G18    29.89S
WINONA         SUNNY     55  45  67 SE5       29.92S
AUSTIN         SUNNY     50  45  81 S12       29.89F
ALBERT LEA     SUNNY     54  46  76 S10       29.87F
DODGE CENTER   SUNNY     52  45  76 S16       29.87S
PRESTON        SUNNY     51  44  78 S15       29.92S
OWATONNA       SUNNY     52  46  82 S15G24    29.84F
FARIBAULT      SUNNY     52  46  82 S13       29.84F
$$

...ELSEWHERE IN MINNESOTA...


CITY           SKY/WX    TMP DP  RH WIND       PRES   REMARKS
MINNEAPOLIS    MOSUNNY   53  47  79 SE9       29.80F
INTNL FALLS    CLOUDY    59  38  45 SW9G20    29.55R
DULUTH         SUNNY     55  44  66 SW13G25   29.70F
RED WING       SUNNY     54  45  71 S7        29.86R
REDWOOD FALLS  SUNNY     53  45  74 S10       29.74S
MANKATO        SUNNY     52  46  80 S13       29.82F
WORTHINGTON    SUNNY     54  45  71 S13G20    29.81R
FAIRMONT       SUNNY     49  45  86 S16       29.84S
$$

...SOUTHWEST WISCONSIN...


CITY           SKY/WX    TMP DP  RH WIND       PRES   REMARKS
LA CROSSE      SUNNY     56  46  69 S14G21    29.94F
PRAIRIE DU CHI SUNNY     55  43  65 S3        30.00S
BOSCOBEL       SUNNY     55  46  71 S8        30.01S
LONE ROCK      SUNNY     54  46  74 S8        30.03F
PLATTEVILLE    SUNNY     53  46  78 S14       30.05S
FORT MC COY    SUNNY     54  45  71 S13       29.95F
CAMP DOUGLAS   SUNNY     54  45  71 S6        29.97S
MAUSTON-NEW LI SUNNY     54  45  72 S8        29.97F
VIROQUA        FAIR      52  46  80 S10       29.97F
WIS DELLS      SUNNY     53  42  67 S13       30.02S
$$

...ELSEWHERE IN WISCONSIN...


CITY           SKY/WX    TMP DP  RH WIND       PRES   REMARKS
MILWAUKEE      SUNNY     56  43  61 SW10      30.11S
MADISON        SUNNY     51  42  71 S13       30.05F
GREEN BAY      SUNNY     55  48  77 S13       30.00F
EAU CLAIRE     SUNNY     53  45  74 S14       29.87S
BLACK RVR FLS  FAIR      54  45  71 S8        29.93S
MEDFORD        SUNNY     51  44  76 S12       29.91R
WAUSAU         SUNNY     52  45  77 S12       29.92F
WIS RAPIDS     SUNNY     54  45  71 SW12      29.96F
MARSHFIELD     SUNNY     51  44  77 S13G18    29.92F
RICE LAKE      SUNNY     52  45  77 SE9       29.86S
$$

...NORTHEAST IOWA...


CITY           SKY/WX    TMP DP  RH WIND       PRES   REMARKS
WATERLOO       SUNNY     53  45  74 S14       29.97S
DUBUQUE        SUNNY     51  44  77 S15       30.04S
DECORAH        SUNNY     54  46  76 S9G16     29.95S
MASON CITY     SUNNY     51  47  86 S13       29.92F
CHARLES CITY   SUNNY     52  46  82 S12G17    29.94F
OELWEIN        SUNNY     54  48  82 S13       29.99F
$$

...ELSEWHERE IN IOWA...


CITY           SKY/WX    TMP DP  RH WIND       PRES   REMARKS
DES MOINES     MOSUNNY   55  46  71 S13       29.99R
IOWA CITY      SUNNY     53  45  74 S6        30.07S
FORT DODGE     SUNNY     54  46  74 S15       29.91F
MARSHALLTOWN   SUNNY     55  47  74 S13       29.98S
CEDAR RAPIDS   SUNNY     52  45  77 S10       30.03F
$$

...NORTHERN ILLINOIS...


CITY           SKY/WX    TMP DP  RH WIND       PRES   REMARKS
CHICAGO-OHARE  SUNNY     55  42  61 SW10      30.16R
CHICAGO-MIDWAY SUNNY     56  42  59 S10       30.17S
MOLINE         SUNNY     54  41  61 S10       30.09R
ROCKFORD       SUNNY     52  42  69 SW10      30.14R
PEORIA         SUNNY     51  44  77 S10       30.17R
$$

NOTE: "FAIR" INDICATES FEW OR NO CLOUDS BELOW 12,000 FEET WITH NO
SIGNIFICANT WEATHER AND/OR OBSTRUCTIONS TO VISIBILITY. WIND
SPEEDS ARE IN MILES-PER-HOUR.




USA.gov is the U.S. government's official web portal to all federal, state and local government web resources and services.